• Processing (Info)

  • MPEC 2010-M37 : 2010 MQ1

    The following Minor Planet Electronic Circular may be linked-to from your own Web pages, but must not otherwise be redistributed electronically.

    A form allowing access to any MPEC is at the bottom of this page.


    Read MPEC 2010-M36 Read MPEC 2010-M38


    M.P.E.C. 2010-M37                                Issued 2010 June 21, 15:11 UT
    
         The Minor Planet Electronic Circulars contain information on unusual
             minor planets and routine data on comets.  They are published
       on behalf of Commission 20 of the International Astronomical Union by the
              Minor Planet Center, Smithsonian Astrophysical Observatory,
                              Cambridge, MA 02138, U.S.A.
    
                 Prepared using the Tamkin Foundation Computer Network
    
                                  MPC@CFA.HARVARD.EDU
           URL https://www.minorplanetcenter.org/iau/mpc.html  ISSN 1523-6714
    
                                       2010 MQ1
    
    Observations:
         K10M01Q* C2010 06 19.41782 22 06 27.50 -10 27 28.7          20.2 V EM037G96
         K10M01Q  C2010 06 19.42416 22 06 25.99 -10 27 03.6          20.2 V EM037G96
         K10M01Q  C2010 06 19.43051 22 06 24.55 -10 26 39.7          20.5 V EM037G96
         K10M01Q  C2010 06 19.43685 22 06 23.07 -10 26 15.1          20.5 V EM037G96
         K10M01Q  C2010 06 20.39565 22 02 45.81 -09 24 37.6          20.5 V EM037G96
         K10M01Q  C2010 06 20.40105 22 02 44.55 -09 24 16.7          20.4 V EM037G96
         K10M01Q  C2010 06 20.41197 22 02 41.96 -09 23 34.6          20.4 V EM037G96
         K10M01Q  C2010 06 20.42420 22 02 39.02 -09 22 47.9          20.4 R EM037H01
         K10M01Q  C2010 06 20.43045 22 02 37.55 -09 22 23.8          20.0 R EM037H01
         K10M01Q  C2010 06 20.43668 22 02 36.09 -09 21 59.9          20.4 R EM037H01
         K10M01Q  C2010 06 20.44397 22 02 34.36 -09 21 31.7          20.0 R EM037H01
         K10M01Q  C2010 06 21.41414 21 58 51.70 -08 19 14.3          20.4 V EM037G96
         K10M01Q  C2010 06 21.41958 21 58 50.44 -08 18 53.1          20.6 V EM037G96
         K10M01Q  C2010 06 21.42502 21 58 49.15 -08 18 32.5          20.4 V EM037G96
    
    Observer details:
    G96 Mt. Lemmon Survey.  Observer R. A. Kowalski.  Measurers J. D. Ahern,
        E. C. Beshore, A. Boattini, G. J. Garradd, A. R. Gibbs, A. D. Grauer,
        R. E. Hill, R. A. Kowalski, S. M. Larson, R. H. McNaught.  1.5-m reflector
        + CCD.
    H01 Magdalena Ridge Observatory, Socorro.  Observer W. H. Ryan.  2.4-m f/8.9
        reflector + CCD.
    
    Orbital elements:
    2010 MQ1                                                 Earth MOID = 0.2012 AU
    Epoch 2010 July 23.0 TT = JDT 2455400.5                 MPC
    M  38.10608              (2000.0)            P               Q
    n   0.36359151     Peri.  285.53282     -0.67374211     +0.44930968
    a   1.9441371      Node   284.62420     -0.18284039     -0.87059159
    e   0.5090146      Incl.   37.32406     -0.71598949     -0.20047717
    P   2.71           H   20.1           G   0.15           U   9
    Residuals in seconds of arc
    100619 G96  0.2+  0.3-    100620 G96  0.2+  0.0     100620 H01  0.1-  0.2+
    100619 G96  0.4-  0.4+    100620 G96  0.2-  0.0     100621 G96  0.4-  0.1-
    100619 G96  0.1+  0.1-    100620 H01  0.0   0.1+    100621 G96  0.1+  0.2+
    100619 G96  0.0   0.1+    100620 H01  0.0   0.2+    100621 G96  0.2+  0.1-
    100620 G96  0.0   0.2-    100620 H01  0.1+  0.1+
    
    Ephemeris:
    2010 MQ1                 a,e,i = 1.94, 0.51, 37                  q = 0.9545
    Date    TT    R. A. (2000) Decl.     Delta      r     Elong.  Phase     V
    2010 06 13    22 29.44   -17 15.1    0.437    1.229   108.9    51.4    20.7
    2010 06 23    21 52.70   -06 37.7    0.426    1.299   123.1    41.0    20.4
    2010 07 03    21 12.22   +03 21.6    0.444    1.371   135.9    31.1    20.4
    2010 07 13    20 32.49   +11 01.2    0.494    1.444   143.5    24.8    20.5
    2010 07 23    19 58.56   +15 42.7    0.572    1.517   144.0    23.2    20.9
    2010 08 02    19 33.20   +17 57.1    0.673    1.589   139.8    24.4    21.4
    2010 08 12    19 16.52   +18 34.6    0.790    1.660   133.6    26.2    21.9
    
    Sonia Keys                   (C) Copyright 2010 MPC           M.P.E.C. 2010-M37
    

    Read MPEC 2010-M36 Read MPEC 2010-M38


    MPEC number:

    Enter an MPEC number in one of the following forms:

    • 1997-B01 (the full form)
    • J97B01 (the packed version of the full form)
    • B01 (the abbreviated form)